Weather History for Pocatello, ID

Change the Weather History Date:

Friday, March 7, 2014

  Actual Average Record
Temperature  
Mean Temperature 43 °F 35 °F  
Max Temperature 50 °F 46 °F 60 °F (1954)
Min Temperature 35 °F 25 °F -1 °F (1964)
Degree Days  
Heating Degree Days 22 30  
Month to date heating degree days 151 217  
Since 1 July heating degree days 5131 5490  
Cooling Degree Days 0 0  
Month to date cooling degree days 0 0  
Year to date cooling degree days 0 0  
Moisture  
Dew Point 32 °F    
Average Humidity 66    
Maximum Humidity 92    
Minimum Humidity 39    
Precipitation  
Precipitation 0.06 in 0.04 in 0.32 in (1943)
Month to date precipitation 1.25 0.29  
Year to date precipitation 2.96 2.25  
Snow  
Snow T in - - ()
Month to date snowfall 1.9  
Since 1 July snowfall 20.8  
Snow Depth 0.00 in    
Sea Level Pressure  
Sea Level Pressure 30.14 in    
Wind  
Wind Speed 14 mph (SW)    
Max Wind Speed 24 mph    
Max Gust Speed 28 mph    
Visibility 10 miles    
Events Rain , Snow    
T = Trace of Precipitation, MM = Missing Value Source: NWS Daily Summary

Daily Weather History Graph

Daily Weather History Graph

Search for Another Location

Airport:

Trip Planner

Search our weather history database for the weather conditions in past years. The results will help you decide how hot, cold, wet, or windy it might be!

Date:

Astronomy

Mar. 07, 2014 Rise Set
Actual Time 6:55 AM MST 6:27 PM MST
Civil Twilight 6:27 AM MST 6:55 PM MST
Nautical Twilight 5:54 AM MST 7:28 PM MST
Astronomical Twilight 5:21 AM MST 8:01 PM MST
Moon 10:42 AM MST (3/7) 12:44 AM MST (3/7)
Length of Visible Light 12h 27m
Length of Day
11h 31m
Waxing Crescent, 42% of the Moon is Illuminated
Mar 7
Waxing Crescent
Mar 8
First Quarter
Mar 16
Full
Mar 23
Last Quarter
Mar 30
New

Hourly Weather History & Observations

Time (MST) Temp. Windchill Dew Point Humidity Pressure Visibility Wind Dir Wind Speed Gust Speed Precip Events Conditions
12:41 AM 37.9 °F 28.2 °F 34.0 °F 86% 30.00 in 10.0 mi SW 18.4 mph - N/A   Overcast
12:53 AM 37.9 °F 28.5 °F 34.0 °F 86% 30.00 in 10.0 mi SW 17.3 mph - N/A   Overcast
1:00 AM 37.9 °F 28.5 °F 34.0 °F 86% 30.00 in 10.0 mi SW 17.3 mph - N/A   Overcast
1:53 AM 37.0 °F 29.8 °F 34.0 °F 89% 30.01 in 10.0 mi SW 10.4 mph - N/A   Overcast
2:01 AM 37.0 °F 29.8 °F 34.0 °F 89% 30.01 in 10.0 mi SW 10.4 mph - N/A   Overcast
2:27 AM 37.0 °F 27.7 °F 33.1 °F 86% 30.01 in 10.0 mi SW 16.1 mph - N/A   Scattered Clouds
2:34 AM 37.0 °F 28.5 °F 33.1 °F 86% 30.01 in 10.0 mi SW 13.8 mph - N/A   Mostly Cloudy
2:42 AM 36.0 °F 27.5 °F 33.1 °F 89% 30.02 in 10.0 mi SW 12.7 mph - N/A   Mostly Cloudy
2:53 AM 37.0 °F 29.3 °F 34.0 °F 89% 30.03 in 10.0 mi SW 11.5 mph - N/A   Overcast
3:20 AM 37.0 °F 29.3 °F 34.0 °F 89% 30.01 in 10.0 mi SW 11.5 mph - N/A   Overcast
6:34 AM 36.0 °F 26.0 °F 30.9 °F 82% 30.09 in 10.0 mi SW 17.3 mph - N/A   Mostly Cloudy
6:53 AM 36.0 °F 25.3 °F 30.9 °F 82% 30.10 in 10.0 mi SW 19.6 mph - N/A   Mostly Cloudy
7:53 AM 36.0 °F 25.0 °F 30.9 °F 82% 30.14 in 10.0 mi SW 20.7 mph - N/A   Mostly Cloudy
8:53 AM 35.1 °F 25.2 °F 32.0 °F 89% 30.16 in 10.0 mi SW 16.1 mph - 0.00 in Snow Light Snow
9:53 AM 36.0 °F 26.7 °F 32.0 °F 86% 30.18 in 10.0 mi SW 15.0 mph - 0.00 in   Mostly Cloudy
10:53 AM 39.0 °F 29.9 °F 33.1 °F 79% 30.19 in 10.0 mi SW 17.3 mph - N/A   Mostly Cloudy
12:53 PM 46.9 °F - 32.0 °F 56% 30.16 in 10.0 mi West 13.8 mph - N/A   Mostly Cloudy
1:53 PM 46.9 °F - 28.0 °F 48% 30.16 in 10.0 mi West 5.8 mph - N/A   Mostly Cloudy
2:53 PM 48.0 °F - 26.1 °F 42% 30.15 in 10.0 mi WSW 12.7 mph - N/A   Mostly Cloudy
3:53 PM 48.0 °F - 24.1 °F 39% 30.16 in 10.0 mi WSW 8.1 mph - N/A   Mostly Cloudy
4:53 PM 46.9 °F - 24.1 °F 41% 30.17 in 10.0 mi WSW 9.2 mph - N/A   Mostly Cloudy
5:53 PM 46.0 °F 41.0 °F 30.0 °F 54% 30.19 in 10.0 mi WSW 10.4 mph - N/A   Mostly Cloudy
6:53 PM 45.0 °F 40.6 °F 35.1 °F 68% 30.20 in 10.0 mi SW 8.1 mph - 0.00 in Rain Light Rain
7:53 PM 42.1 °F 34.2 °F 34.0 °F 73% 30.24 in 7.0 mi North 16.1 mph - 0.00 in Rain Rain
8:53 PM 42.1 °F 36.1 °F 36.0 °F 79% 30.25 in 10.0 mi SW 10.4 mph - 0.06 in   Overcast
9:53 PM 39.0 °F 31.4 °F 33.1 °F 79% 30.28 in 10.0 mi SSW 12.7 mph - N/A   Clear
10:53 PM 37.0 °F 29.8 °F 30.9 °F 79% 30.30 in 10.0 mi SSW 10.4 mph - N/A   Clear
11:53 PM 37.9 °F 30.0 °F 30.9 °F 76% 30.31 in 10.0 mi SSW 12.7 mph - N/A   Clear